Regional Weather Roundup
Issued by NWS Charleston, SC

Current Version | Previous Version | Graphics & Text | Print | Product List | Glossary On
Versions: 1 2 3 4 5 6 7 8 9 10 11 12 13 14 15 16 17 18 19 20 21 22 23 24 25 26 27 28 29 30 31 32 33 34 35 36 37 38 39 40 41 42 43 44 45 46 47 48 49 50
000
ASUS42 KCHS 261127
RWRCHS

REGIONAL WEATHER ROUNDUP
NATIONAL WEATHER SERVICE CHARLESTON SC
700 AM EDT FRI MAY 26 2017

NOTE: "FAIR" INDICATES FEW OR NO CLOUDS BELOW 12,000 FEET WITH NO
SIGNIFICANT WEATHER AND/OR OBSTRUCTIONS TO VISIBILITY.

NOT ALL STATIONS ARE QUALITY CONTROLLED. USE DATA WITH CAUTION...
ESPECIALLY DEWPOINT OBSERVATIONS.

SCZ027-030-031-034>040-042>050-261200-
...SOUTHEAST SOUTH CAROLINA...

CITY           SKY/WX    TMP DP  RH WIND       PRES   REMARKS
N CHARLESTON   CLEAR     61  53  75 W6        29.99R
WATERFRONT PRK   N/A     65  55  70 VRB3      29.97R
JOHNS ISLAND   FAIR      64  55  72 W7        30.00R
PINOPOLIS        N/A     63  57  82 W9        29.88R
MONCKS CORNER  FAIR      59  54  82 SW5       29.99R
SUMMERVILLE    FAIR      59  54  82 CALM      30.00R
BEAUFORT MCAS  CLEAR     63  55  75 W3        30.00R
BEAUFORT ARPT  FAIR      63  54  72 CALM      30.01R
HILTON HEAD IS CLEAR     63  55  77 SW5       30.02R
WALTERBORO     SUNNY     59  54  82 W5        30.01R
ALLENDALE      FAIR      57  55  94 CALM      29.99R

...SOUTHERN MIDLANDS AND PEE DEE...

CITY           SKY/WX    TMP DP  RH WIND       PRES   REMARKS
GEORGETOWN     FAIR      59  55  88 SW5       29.98R
KINGSTREE      FAIR      59  52  77 CALM      29.97R
ORANGEBURG     CLEAR     57  54  89 SW5       29.98R
BARNWELL       FAIR      59  55  88 CALM      30.00R
AIKEN          FAIR      55  52  88 SW5       30.03R
MANNING        FAIR      59  55  88 CALM      29.98R
COLUMBIA       CLEAR     57  53  86 W3        29.97R
SUMTER         CLEAR     59  53  79 W6        29.94R
FLORENCE       CLEAR     59  54  83 W5        29.95R
MYRTLE BEACH   CLEAR     63  54  72 W10       29.97R
N MYRTLE BEACH CLEAR     62  54  74 W8        29.95R

$$

GAZ063-065-086>088-099>101-113>116-118-119-134>141-150-261200-
...SOUTHEAST GEORGIA...

CITY           SKY/WX    TMP DP  RH WIND       PRES   REMARKS
SAVANNAH ARPT  PTCLDY    58  53  84 CALM      30.02R
HUNTER AAF     PTCLDY    58  56  94 CALM      29.99R
FORT STEWART   CLEAR     56  53  91 CALM      30.00R
STATESBORO     CLEAR     57  57 100 CALM      30.02R
SYLVANIA       SUNNY     56  56 100 CALM      30.02R
CLAXTON        FAIR     N/A N/A N/A CALM      30.03R

...CSRA...CENTRAL AND FAR SOUTHEAST GEORGIA...

CITY           SKY/WX    TMP DP  RH WIND       PRES   REMARKS
THOMSON        CLEAR     55  53  93 CALM      30.06R
AUGUSTA-BUSH   CLEAR     58  53  84 W5        29.99R
AUGUSTA-DANIEL CLEAR     64  49  57 NW8       30.00R
SWAINSBORO     FAIR      55  55 100 CALM      30.03R
VIDALIA        CLEAR     59  55  88 CALM      30.03R
EASTMAN        FAIR      54  54  99 CALM      30.06R
HAZLEHURST     FAIR      58  58 100 CALM      30.03R
ALMA           CLEAR     56  53  90 CALM      30.03R
WAYCROSS       CLEAR     59  59 100 CALM      30.04R
JESUP          FAIR      54  50  87 CALM      30.04R
BAXLEY         FAIR      55  55 100 CALM      30.04R
BRUNSWICK      CLEAR     55  55 100 CALM      30.04R
SAINT SIMONS   CLEAR     61  58  90 CALM      30.02R

$$

SCZ027-028-034-036>038-045-046-048>050-GAZ119-141-261200-
...LAKE AND SUPPLEMENTAL COASTAL OBSERVATIONS...

STATION/POSITION TIME  TEMP    WIND        PRES    WAVE   SWELL
                       AIR SEA DIR/SP/G            HT/PER HT/PER/DIR
                 (UTC) (F)     (DEG/KT/KT) (MB)    (FT/S) (FT/S/D)
WINYAH BAY       1045   62     260/  5     1014.0S
LAKE MURRAY      1120   63     270/ 11/ 13 1014.2
ACE BASIN NERRS  1045   60        CALM     1016.0R
FORT PULASKI     1100   65     270/  5/  8 1016.6
SAPELO ISLAND    1100   64        CALM     1017.0

$$

ANZ835-935-AMZ111-154-330-350-352-354-370-450-454-472-261200-
...C-MAN AND BUOY OBSERVATIONS...

STATION/POSITION TIME  TEMP    WIND        PRES    WAVE   SWELL
                       AIR SEA DIR/SP/G            HT/PER HT/PER/DIR
                 (UTC) (F)     (DEG/KT/KT) (MB)    (FT/S) (FT/S/D)
BUOY 41004       1110   72 74  290/ 14/ 17 1015.3
BUOY 41008       1050   72 76  290/ 10/ 12 1016.2R   2/ 7   2/100/ 7
FOLLY BEACH CMAN 1100   63     290/  5/  8 1016.1R
CAPERS NEARSHORE 1108   73 76  300/ 16/ 21 1015.1R
FRIPP NEARSHORE  1108   70 76  300/ 12/ 16 1015.6R


STATION/POSITION TIME  TEMP    WIND        PRES    WAVE   SWELL
                       AIR SEA DIR/SP/G            HT/PER HT/PER/DIR
                 (UTC) (F)     (DEG/KT/KT) (MB)    (FT/S) (FT/S/D)
5E ST. MARYS GA  1100      78                N/A     2/ 7
FRYING PAN BUOY  1110   73 75  270/ 19/ 23 1014.0
BUOY 41025       1050   72 78  270/ 23/ 29 1010.4R   9/ 8   7/220/ 8
CAPE LOOKOUT NC  1100   69     280/ 20/ 22 1011.9R
BUOY 41002       1050   77 76  270/ 17/ 19 1014.6R   8/ 9   3/290/ 9
BUOY 41010       1110   78 78  310/ 10/ 12 1016.0
ST AUGUSTINE FL  1100   64 74  250/  7/  9 1017.9R


$$




USA.gov is the U.S. government's official web portal to all federal, state and local government web resources and services.